User: anonymous   Login
Location: Bijele Vode
(45.2833°N, 16.2000°E)
Time: 03:33:46
(UTC+00:00)
Language:

COSMOS 2406 - Orbit

View from above orbital plane
View from above orbital plane
View from above satellite
View from above satellite

Ground track
Ground track

The orbit data is extracted from the following two-line orbital elements,

1 28352U 04021A   20329.52421560 -.00000086  00000-0 -21094-4 0  9994
2 28352  71.0020  21.2874 0014522 359.0021   1.1068 14.11670504848140
Epoch (UTC): 24 November 2020 12:34:52
Eccentricity: 0.0014522
inclination: 71.0020°
perigee height: 843 km
apogee height: 864 km
right ascension of ascending node: 21.2874°
argument of perigee: 359.0021°
revolutions per day: 14.11670504
mean anomaly at epoch: 1.1068°
orbit number at epoch: 84814

The dashed part of the orbit path shows where the satellite is in the earth's shadow,  

DLR